Location: Unspecified
(60.0903°N, 0.0000°E)
Time: 03:10:40
(UTC+00:00)

SR - Visible Passes

Search period start: 04 April 2026 00:00
Search period end: 14 April 2026 00:00
Orbit: 571 x 850 km, 66.7° (Epoch: 29 March)

Date Brightness Start Highest point End Pass type
(mag) Time Alt. Az. Time Alt. Az. Time Alt. Az.
4 Apr ? 00:38:26 10° NW 00:43:41 87° SW 00:45:33 43° SE visible
4 Apr ? 02:20:25 10° WNW 02:24:32 29° WSW 02:24:32 29° WSW visible
4 Apr ? 20:18:50 10° W 20:23:31 47° NNW 20:28:36 10° ENE visible
4 Apr ? 22:01:21 10° WNW 22:06:07 41° N 22:11:15 10° ENE visible
4 Apr ? 23:43:20 10° NW 23:48:30 68° NNE 23:51:23 29° ESE visible
5 Apr ? 01:25:07 10° NW 01:30:11 47° SW 01:30:22 46° SW visible
5 Apr ? 03:08:17 10° WNW 03:09:22 12° W 03:09:22 12° W visible
5 Apr ? 21:05:58 10° WNW 21:10:40 40° N 21:15:44 10° ENE visible
5 Apr ? 22:48:12 10° NW 22:53:13 52° NNE 22:57:19 17° E visible
6 Apr ? 00:29:58 10° NW 00:35:14 72° SW 00:36:19 56° SSE visible
6 Apr ? 02:12:10 10° WNW 02:15:19 22° W 02:15:19 22° W visible
6 Apr ? 20:10:32 10° W 20:15:13 43° NNW 20:20:18 10° ENE visible
6 Apr ? 21:52:58 10° WNW 21:57:50 44° NNE 22:03:04 10° E visible
6 Apr ? 23:34:52 10° NW 23:40:07 80° NE 23:42:19 38° ESE visible
7 Apr ? 01:16:44 10° WNW 01:21:20 37° WSW 01:21:20 37° WSW visible
7 Apr ? 20:57:38 10° WNW 21:02:23 40° N 21:07:30 10° ENE visible
7 Apr ? 22:39:45 10° NW 22:44:53 59° NNE 22:48:24 22° E visible
8 Apr ? 00:21:31 10° NW 00:26:44 58° SW 00:27:24 54° SSW visible
8 Apr ? 02:04:04 10° WNW 02:06:24 17° W 02:06:24 17° W visible
8 Apr ? 20:02:13 10° WNW 20:06:55 41° N 20:12:01 10° ENE visible
8 Apr ? 21:44:33 10° WNW 21:49:32 47° NNE 21:54:31 12° E visible
8 Apr ? 23:26:23 10° NW 23:31:41 86° SW 23:33:31 44° SE visible
9 Apr ? 01:08:23 10° WNW 01:12:31 29° WSW 01:12:31 29° WSW visible
9 Apr ? 20:49:17 10° WNW 20:54:06 42° N 20:59:17 10° ENE visible
9 Apr ? 22:31:16 10° NW 22:36:30 69° NNE 22:39:39 26° ESE visible
10 Apr ? 00:13:03 10° NW 00:18:10 46° SW 00:18:40 45° SW visible
10 Apr ? 01:56:17 10° W 01:57:41 13° W 01:57:41 13° W visible
10 Apr ? 19:53:53 10° WNW 19:58:37 41° N 20:03:44 10° ENE visible
10 Apr ? 21:36:07 10° NW 21:41:11 53° NNE 21:45:49 14° E visible
10 Apr ? 23:17:53 10° NW 23:23:11 71° SW 23:24:50 45° SSE visible
11 Apr ? 01:00:06 10° WNW 01:03:51 23° WSW 01:03:51 23° WSW visible
11 Apr ? 20:40:52 10° WNW 20:45:47 44° NNE 20:51:04 10° E visible
11 Apr ? 22:22:46 10° NW 22:28:04 81° NE 22:31:02 29° ESE visible
12 Apr ? 00:04:38 10° WNW 00:09:32 36° WSW 00:10:03 36° SW visible
12 Apr ? 21:27:37 10° NW 21:32:48 60° NNE 21:37:15 16° ESE visible
12 Apr ? 23:09:23 10° NW 23:14:38 57° SW 23:16:16 41° S visible
13 Apr ? 00:51:59 10° WNW 00:55:17 17° WSW 00:55:17 17° WSW visible
13 Apr ? 20:32:24 10° WNW 20:37:26 48° NNE 20:42:49 10° E visible
13 Apr ? 22:14:15 10° NW 22:19:35 85° SW 22:22:31 29° SE visible
